This demonstration page uses our WeatherBlox Daily Observations layout. Learn more.

Hourly Observations for December 31, 2017

Temp ( °F °C ) Dew Point ( °F °C ) Humidity (%) Winds ( mph kmh ) Pressure ( in mb ) Visibility ( mi km ) Precip ( " mm )
12:53 am 00:53 Clear 5 -15 -3 -19.4 69 69 NW 5 7 30.45 1031 10 16.0934 0 0
1:53 am 01:53 Cloudy 6 -14.4 -3 -19.4 66 66 NNW 5 7 30.47 1032 10 16.0934 0 0
2:53 am 02:53 Cloudy 6 -14.4 -2 -18.9 69 69 NNW 3 6 30.48 1032 10 16.0934 0 0
3:53 am 03:53 Cloudy 7 -13.9 -2 -18.9 66 66 Calm 30.44 1031 10 16.0934 0 0
4:53 am 04:53 Cloudy 7 -13.9 -1 -18.3 70 70 NNW 3 6 30.46 1032 10 16.0934 0 0
5:53 am 05:53 Cloudy 7 -13.9 -1 -18.3 70 70 N 7 11 30.46 1032 10 16.0934 0 0
6:53 am 06:53 Cloudy 7 -13.9 0 -17.8 73 73 N 6 9 30.49 1033 10 16.0934 0 0
7:53 am 07:53 Cloudy 7 -13.9 1 -17.2 76 76 NNW 3 6 30.5 1033 10 16.0934 0 0
8:53 am 08:53 Cloudy 8 -13.3 2 -16.7 76 76 NNW 5 7 30.52 1033 10 16.0934 0 0
9:47 am 09:47 Mostly Cloudy with Light Snow 9 -13 3 -16 78 78 N 3 6 30.56 1035 1.5 2.41401 0 0.0254
9:53 am 09:53 Cloudy with Light Snow 8 -13.3 3 -16.1 80 80 NNW 3 6 30.53 1034 0.75 1.207005 0 0.0254
10:17 am 10:17 Mostly Cloudy with Light Snow 8 -13.3 4 -15.6 83 83 Calm 30.53 1034 1 1.60934 0 0.0254
10:53 am 10:53 Cloudy with Light Snow 9 -12.8 4 -15.6 80 80 NW 5 7 30.55 1034 1.75 2.816345 0 0.0254
11:02 am 11:02 Cloudy with Light Snow 9 -12.8 4 -15.6 80 80 N 3 6 30.56 1035 2 3.21868 0 0.0254
11:10 am 11:10 Cloudy with Light Snow 9 -12.8 4 -15.6 80 80 NNW 7 11 30.56 1035 3 4.82802 0 0.0254
11:53 am 11:53 Cloudy 12 -11.1 4 -15.6 70 70 VRB 3 6 30.53 1034 9 14.48406 0 0.0254
12:13 pm 12:13 Cloudy 13 -10.6 5 -15 70 70 VRB 3 6 30.56 1035 10 16.0934 0 0
12:53 pm 12:53 Cloudy 13 -10.6 5 -15 70 70 NE 5 7 30.51 1033 10 16.0934 0 0
1:02 pm 13:02 Cloudy 13 -10.6 5 -15 70 70 VRB 6 9 30.5 1033 10 16.0934 0 0
1:53 pm 13:53 Cloudy 14 -10 6 -14.4 71 71 N 7 11 30.5 1033 9 14.48406 0 0
2:20 pm 14:20 Cloudy with Light Snow 15 -9.4 7 -13.9 70 70 N 7 11 30.5 1033 2.5 4.02335 0 0.0254
2:34 pm 14:34 Cloudy with Light Snow 15 -9.4 7 -13.9 70 70 N 7 11 30.5 1033 3 4.82802 0 0.0254
2:53 pm 14:53 Cloudy with Light Snow 14 -10 7 -13.9 73 73 NNW 6 9 30.51 1033 4 6.43736 0 0.0254
3:53 pm 15:53 Cloudy with Haze 15 -9.4 7 -13.9 70 70 N 7 11 30.51 1033 5 8.0467 0 0.0254
4:53 pm 16:53 Mostly Cloudy 13 -10.6 6 -14.4 74 74 NNW 9 15 30.53 1034 10 16.0934 0 0
5:53 pm 17:53 Cloudy 13 -10.6 6 -14.4 74 74 N 7 11 30.55 1034 10 16.0934 0 0
6:53 pm 18:53 Cloudy 11 -11.7 5 -15 77 77 N 7 11 30.57 1035 10 16.0934 0 0
7:53 pm 19:53 Mostly Cloudy 9 -12.8 3 -16.1 77 77 NNW 3 6 30.59 1036 10 16.0934 0 0
8:53 pm 20:53 Clear 2 -16.7 -1 -18.3 88 88 Calm 30.6 1036 10 16.0934 0 0
9:53 pm 21:53 Clear -1 -18.3 -4 -20 87 87 Calm 30.61 1037 10 16.0934 0 0
10:53 pm 22:53 Clear -2 -18.9 -6 -21.1 83 83 Calm 30.63 1037 9 14.48406 0 0
11:53 pm 23:53 Clear 2 -16.7 -2 -18.9 83 83 WSW 3 6 30.63 1037 10 16.0934 0 0

Powered by AerisWeather